Погода в Тайдуне

Тайвань     22°45′23″N   121°08′45″E
темп.,
°C
ветер,
м/с
пор.,
м/с
влажн.,
%
обл.,
%
осадки,
мм/ч
давл.,
гПа
погр.,
м
14 августа, вс
вс1423:00+29ссв23775 2.1 1009370
02:00+28с23796 2.1 1007368
05:00+28ссв238054 0.0 1008328
08:00+29ссв23755 0.0 1008386
11:00+30всв437236 0.0 1008583
14:00+30всв4472100 0.0 1007631
17:00+30всв447476 0.1 1007716
20:00+28ссв4582100 2.9 1008250
15 августа, пн
пн1523:00+28ссв347987 1.4 1008358
02:00+28с3380100 1.4 1007372
05:00+28с338075 0.0 1006319
08:00+29ссв347538 0.1 1008443
11:00+29всв55755 0.6 1007630
14:00+30всв667568 1.8 1006696
17:00+29всв457811 3.3 1006495
20:00+28ссв348217 7.3 1008251
16 августа, вт
вт1623:00+27ссв448272 3.3 1009270
02:00+27ссв238134 6.5 1007158
05:00+27с22780 0.3 1006265
08:00+28ссв11731 0.3 1007391
11:00+29вюв32723 0.0 1007521
14:00+29вюв327113 0.0 1005614
17:00+30ююв226976 0.1 1005787
20:00+29з117384 0.4 1007417
17 августа, ср
ср1723:00+28сз117685 0.0 1007197
02:00+28сз117658 0.0 1005188
05:00+28зюз227442 0.0 1006264
08:00+29зсз017040 0.0 1007365
11:00+29ю337168 0.0 1007624
14:00+30ююв32688 0.0 1005682
17:00+30ююв116854 0.1 1005700
20:00+29зсз1174100 1.5 1007152
18 августа, чт
чт1823:00+28ссз117684 0.3 1007136
02:00+28сз1177100 1.4 1005141
05:00+28зюз227522 0.0 1004227
08:00+29юз1271100 0.0 1005605
11:00+29юв227591 1.3 1005390
14:00+28юв4479100 6.3 1005476
17:00+27зсз118485 2.2 1004332
20:00+27с2380100 5.1 1005175